Wind_Speed
24 24 24 24 23 24 24 24 24 23 22 22 21 21 20 20 19 18 17 17 16 16 16 16 15 14 13 13 13 12 12 12 12 11 12 12 12 11 10 10 11 11 11 10 10 9 8 8 8 8 8 8 8 8 8 8 8 8 7 6 7 6 5 6 7 7 7 6 6 6 6 6 5 4 6 6 5 7 7 6 6 4 2 4 5
24 23 22 23 24 24 24 24 24 24 23 23 22 22 21 21 20 19 18 18 18 17 17 17 17 16 15 14 14 13 13 13 12 12 12 12 12 12 11 11 12 12 11 11 11 11 10 10 10 9 9 9 10 10 9 9 9 9 8 8 8 7 6 6 7 8 8 7 7 7 6 6 6 5 6 6 6 6 6 6 5 4 4 3 3
24 23 22 23 24 24 23 23 23 24 24 23 23 23 22 21 21 20 20 19 18 19 19 18 17 17 17 16 15 14 14 14 13 13 13 13 13 12 11 11 12 12 12 12 12 12 12 11 11 11 10 10 11 11 10 10 10 9 9 8 8 8 7 7 7 8 9 8 8 8 7 6 7 6 6 6 6 5 5 5 5 4 4 3 3
22 22 23 23 23 23 23 23 23 24 24 24 24 23 22 21 21 22 22 20 19 20 20 20 19 19 19 18 17 17 16 15 15 14 14 14 13 13 12 12 13 12 12 12 12 12 13 13 13 12 11 11 12 12 11 11 10 10 10 9 9 9 8 8 9 9 9 9 9 8 8 8 8 7 6 6 6 5 4 5 5 4 5 4 4
21 22 22 22 23 23 23 23 23 24 24 24 24 24 23 22 21 22 23 22 21 20 20 21 20 21 21 20 20 21 19 18 17 16 16 15 15 14 14 14 14 13 13 13 13 13 13 14 13 13 13 13 13 13 13 12 12 11 10 9 9 9 9 9 9 9 10 10 10 9 9 9 8 7 6 6 6 6 5 5 4 3 4 4 3
22 22 21 21 22 23 23 23 24 24 24 24 24 24 23 23 22 22 22 23 23 21 20 20 21 22 24 23 22 23 23 21 20 19 18 16 16 16 15 15 15 15 15 14 14 14 14 14 14 14 14 15 14 14 13 13 12 12 11 10 9 9 9 10 10 10 11 11 11 10 10 9 9 8 6 6 7 7 6 5 5 3 4 4 3
22 23 22 21 21 23 24 24 24 24 24 24 23 23 23 23 23 22 22 22 23 23 22 21 21 22 24 25 23 23 24 23 23 23 21 19 18 17 17 17 16 16 16 15 15 15 15 15 15 15 15 16 15 15 14 13 13 13 12 11 11 11 11 11 11 11 11 11 11 11 10 9 9 8 7 6 7 7 6 6 5 4 4 4 4
22 22 22 21 22 23 24 24 24 23 23 23 23 22 22 23 23 22 21 21 23 23 23 22 21 21 23 24 23 22 22 22 23 24 23 21 20 19 18 18 18 17 17 17 16 16 16 16 16 16 17 17 17 16 14 13 13 13 12 12 11 12 12 11 11 11 11 11 11 11 10 10 9 9 8 7 7 7 6 6 7 6 6 6 5
19 21 21 22 23 23 23 23 22 23 22 22 23 23 22 22 23 22 21 21 21 22 23 23 22 22 21 22 22 22 22 22 22 23 23 22 22 21 20 20 20 19 19 18 17 17 17 17 17 17 18 18 18 18 16 15 14 12 11 12 12 12 12 12 11 11 11 11 11 11 11 11 10 9 8 7 7 6 6 6 8 8 8 8 7
18 19 20 22 23 22 21 21 21 21 23 23 23 23 23 22 22 22 22 22 21 21 21 22 22 22 21 21 21 22 22 23 24 26 27 25 22 21 21 21 20 20 20 19 19 18 18 18 18 18 19 20 22 22 22 20 18 17 14 12 12 12 12 12 12 12 12 11 12 11 11 11 10 9 9 8 8 8 7 7 8 9 9 9 9
16 19 20 20 20 20 20 20 21 21 22 23 23 23 23 22 22 22 22 21 21 20 20 21 22 22 21 21 21 22 22 23 25 29 31 31 27 22 20 20 20 20 20 20 20 19 19 19 18 18 19 21 23 25 25 23 22 21 20 18 17 15 14 13 12 13 13 13 12 12 12 12 11 10 10 11 10 9 8 8 9 9 9 9 10
14 16 20 20 19 20 20 20 21 22 22 22 22 22 22 22 22 22 22 22 22 21 21 22 23 23 22 22 22 22 22 23 26 29 32 33 32 27 22 19 19 20 20 20 20 19 19 19 18 18 18 20 21 22 23 23 22 22 22 21 21 21 20 18 16 14 13 13 13 13 13 12 11 11 11 11 10 9 9 9 10 10 11 10 11
13 14 17 20 20 20 20 20 21 22 23 22 21 20 20 22 23 23 23 23 21 22 23 24 24 24 24 24 24 24 23 24 27 30 32 32 32 31 27 22 21 20 20 20 20 20 19 18 18 18 17 18 19 19 18 19 20 21 21 21 21 22 23 23 22 20 17 15 14 14 14 12 12 12 11 9 9 10 10 11 11 11 12 11 12
12 13 14 18 20 19 19 20 21 21 21 22 21 20 21 22 24 23 23 22 22 23 24 25 25 25 26 26 26 26 25 26 28 31 32 32 31 31 30 26 23 22 21 20 20 20 20 19 19 18 18 17 17 18 18 17 17 18 19 20 22 22 23 24 24 24 23 21 19 18 16 14 14 13 11 10 10 11 12 12 12 12 13 13 13
13 13 13 13 17 20 20 20 21 21 21 20 21 22 23 23 24 23 22 22 23 24 25 25 25 26 26 26 26 26 26 27 29 32 33 32 31 31 30 28 25 24 23 22 22 21 20 20 20 19 19 18 18 19 19 17 16 16 16 17 19 19 21 22 24 24 25 25 25 24 22 19 16 15 14 13 12 13 13 14 14 14 14 14 14
14 13 14 15 13 15 19 21 20 20 20 21 21 22 24 24 24 24 23 23 23 23 24 24 25 26 26 25 25 25 26 27 29 32 33 33 31 30 31 29 26 25 24 24 23 23 22 22 21 21 20 20 20 22 22 19 17 17 17 17 17 18 19 20 22 23 24 24 24 24 23 21 19 18 18 16 15 13 13 14 15 15 15 14 14
14 14 13 15 17 14 14 18 21 21 20 21 23 23 24 25 25 24 23 23 24 24 24 24 24 25 25 25 25 26 26 26 28 30 32 32 31 30 30 27 25 25 25 24 24 23 24 24 23 22 21 21 22 24 25 23 19 18 17 17 17 18 19 19 21 22 23 22 22 22 22 21 21 22 22 20 19 17 15 15 15 16 16 14 13
12 13 14 16 17 16 15 15 18 21 22 22 23 24 24 24 24 23 24 24 24 25 24 23 23 23 25 25 26 26 26 26 27 30 31 32 32 32 30 25 23 24 24 24 25 24 25 26 26 24 22 21 22 24 26 26 23 20 19 18 18 19 19 18 18 19 20 20 21 21 22 21 21 22 22 22 21 20 20 19 18 17 17 15 14
10 10 13 16 17 16 16 16 16 17 21 23 24 24 23 23 23 22 23 23 24 24 24 24 24 24 24 25 25 26 26 25 27 30 32 32 33 33 30 24 23 24 23 24 24 25 25 26 28 29 27 24 23 24 26 26 24 21 20 19 20 20 20 18 17 17 17 18 20 21 22 22 22 22 23 23 22 22 23 23 20 18 17 17 16
12 10 10 12 15 15 14 15 16 17 17 19 22 22 20 21 21 22 22 23 23 23 23 24 25 25 24 24 25 26 26 25 26 29 31 32 34 34 31 26 24 24 23 23 24 24 25 25 27 31 32 30 28 27 27 28 26 22 20 20 21 20 19 17 17 17 17 17 18 18 19 19 19 19 20 22 23 25 27 26 23 20 19 18 17
15 13 11 11 12 13 13 14 15 16 17 17 18 20 20 19 19 19 20 21 22 22 23 23 24 25 24 24 24 25 25 25 26 28 30 32 33 34 33 29 26 25 24 23 24 24 24 24 24 26 30 31 32 32 32 32 30 26 23 22 22 21 18 16 15 16 16 17 17 17 16 17 17 18 19 20 21 24 26 28 26 23 20 19 19
17 15 14 13 12 11 12 13 14 14 14 14 14 17 20 22 22 22 22 22 22 22 23 22 22 23 24 24 24 24 25 25 27 28 30 31 33 35 35 32 28 25 24 24 24 23 23 23 22 23 26 27 29 31 32 33 33 32 30 28 25 24 22 18 15 16 17 17 17 17 17 17 18 19 19 20 20 21 21 23 25 25 23 22 21
18 16 15 13 12 12 12 12 13 14 14 13 13 14 15 17 21 23 24 26 27 26 25 24 23 23 23 23 24 24 24 25 27 28 30 31 32 35 37 35 32 28 26 26 26 24 22 22 21 23 25 27 27 28 28 29 31 32 33 32 30 29 27 22 18 17 18 18 18 18 18 18 18 18 19 19 20 20 19 18 20 22 24 24 23
19 17 16 14 13 13 13 13 13 15 15 14 14 14 14 14 17 20 22 25 28 31 30 26 24 23 24 24 25 26 25 25 27 29 32 33 34 35 36 35 35 33 30 28 28 26 24 22 22 23 26 27 27 27 26 27 29 29 30 29 30 30 30 25 21 20 20 20 21 20 19 19 20 19 19 18 18 18 18 18 18 20 22 22 22
19 18 17 16 14 13 12 13 13 13 14 16 16 16 15 15 16 18 18 20 24 31 34 30 25 23 24 24 25 26 24 24 26 28 32 34 35 37 37 36 36 36 35 30 28 27 25 23 22 23 25 26 26 25 26 27 27 28 27 26 27 30 31 27 23 22 23 23 22 21 21 21 21 20 19 18 18 17 17 18 19 20 20 21 21
17 18 18 17 16 13 11 11 12 12 12 13 15 17 17 16 15 16 18 19 21 26 32 32 26 23 24 25 25 24 23 23 25 27 29 33 34 35 36 37 36 36 37 35 31 28 27 26 25 23 24 25 26 26 27 28 28 28 27 27 28 30 29 25 23 23 24 24 23 22 21 21 20 20 20 19 20 20 19 19 19 19 19 19 19
16 17 18 18 17 13 11 10 11 12 10 9 11 14 17 17 15 15 17 18 19 23 29 31 26 21 21 22 22 22 23 24 25 24 24 28 33 34 35 37 37 36 37 39 38 35 32 31 31 30 28 27 27 27 27 27 27 28 29 30 32 32 28 25 25 24 23 23 22 22 22 21 20 20 20 21 22 21 20 19 20 20 19 18 19
15 16 18 19 17 14 12 11 11 12 12 10 9 11 14 16 17 17 17 17 18 22 27 28 25 21 19 18 20 21 23 23 24 24 23 24 26 28 31 35 37 38 38 39 38 36 33 31 31 31 29 27 25 24 23 23 24 25 26 28 31 32 30 28 26 25 24 23 23 22 22 21 21 21 21 22 22 22 21 20 20 20 19 18 18
14 15 16 17 16 15 15 13 10 11 13 13 11 11 12 14 18 22 23 23 23 23 25 26 24 20 18 18 20 22 25 25 22 23 24 23 21 20 22 26 30 33 33 34 32 29 25 26 26 25 25 24 24 23 23 23 23 23 23 23 25 27 28 28 27 27 25 24 24 23 22 22 22 22 22 22 23 22 21 21 21 20 20 20 19
14 14 14 15 15 16 17 15 12 11 12 15 16 16 15 15 16 19 23 25 26 26 27 27 25 20 19 24 26 27 29 30 27 25 23 22 22 20 18 18 20 21 22 26 30 26 22 23 25 24 24 25 25 24 24 24 24 24 23 23 24 24 25 26 27 26 25 25 25 24 23 23 23 23 23 24 23 22 21 21 22 22 21 21 21
15 13 13 13 14 16 18 18 15 12 11 13 16 18 20 19 18 17 18 20 22 24 26 28 26 21 21 27 30 30 31 33 31 28 25 21 21 21 20 19 19 18 18 22 27 26 23 23 24 24 25 26 26 26 25 24 25 24 24 24 24 25 25 25 25 25 25 25 25 25 24 24 24 25 25 25 24 22 21 21 23 24 24 23 22
15 14 13 14 14 15 17 19 18 15 12 11 13 16 19 21 21 19 17 16 19 22 26 29 27 22 21 25 30 32 34 34 34 33 29 23 19 19 20 21 22 22 21 21 22 22 21 23 23 24 25 26 26 26 26 26 25 24 23 24 25 25 25 25 24 24 24 25 24 25 25 25 25 25 25 25 23 22 21 20 22 23 25 25 24
16 15 15 15 15 15 15 17 19 19 14 10 11 15 17 18 20 21 21 19 18 20 22 24 22 20 20 23 27 32 36 38 38 36 31 25 21 20 20 21 23 24 24 23 21 19 20 22 24 24 25 25 24 24 24 26 27 25 25 25 25 25 25 25 25 25 25 25 25 25 25 25 25 25 24 24 23 21 22 24 24 24 23 23 23
16 16 16 16 16 16 15 15 17 19 17 14 12 14 16 17 17 19 22 22 20 19 19 19 19 19 20 20 22 25 29 34 38 38 35 28 24 21 21 23 24 24 25 25 22 21 22 23 24 24 24 24 24 23 22 23 25 27 27 26 26 26 25 24 25 26 27 26 26 27 26 25 25 24 23 24 24 23 23 26 27 26 24 22 20
17 17 16 16 16 16 15 14 15 16 17 16 14 13 15 17 17 17 18 19 19 19 19 18 18 18 19 20 20 20 20 22 27 33 36 33 29 25 23 23 23 23 26 27 25 23 24 25 25 24 24 24 25 26 25 24 24 26 27 27 27 28 26 25 25 26 27 27 27 26 27 26 26 25 24 24 25 25 24 25 25 25 24 22 20
18 17 16 15 15 15 14 14 14 14 16 17 16 13 13 16 17 17 16 17 17 18 19 19 18 18 19 20 20 20 18 16 16 20 26 30 30 28 25 23 21 20 23 28 28 26 25 24 25 25 25 25 25 26 27 27 27 27 28 28 28 28 28 27 26 26 28 29 28 26 26 26 25 24 23 24 26 26 25 24 24 24 25 23 21
18 17 16 15 15 16 15 14 14 15 16 17 17 14 13 15 16 16 15 15 16 17 18 19 18 18 17 17 16 15 15 13 12 14 17 21 24 26 26 25 23 21 21 24 25 24 23 24 25 26 27 27 26 26 27 27 27 28 28 28 29 29 29 29 28 28 28 28 28 27 26 27 26 23 22 25 26 25 24 25 23 22 23 24 22
18 19 18 17 17 18 17 16 15 15 15 15 15 15 14 14 15 15 15 14 14 15 16 18 18 18 17 16 14 13 14 14 13 14 16 17 20 23 26 25 24 23 23 25 25 24 24 26 27 29 29 28 28 27 27 27 28 28 28 27 28 29 30 30 30 30 29 29 30 28 25 26 27 26 25 26 27 24 23 24 23 22 22 23 22
18 19 19 19 19 18 17 16 15 14 14 13 14 14 15 14 14 15 14 13 12 12 13 14 16 16 16 16 17 16 15 15 15 15 16 17 20 23 25 25 24 23 23 25 26 26 26 27 28 29 30 29 29 29 28 28 28 28 28 28 27 28 30 30 29 29 29 29 29 27 26 28 30 29 27 27 27 26 25 25 24 22 22 22 20
16 17 18 19 19 18 17 16 16 14 13 13 13 13 14 14 14 14 14 13 13 12 12 12 14 15 15 18 22 24 22 17 16 15 15 15 17 19 21 23 24 25 24 23 24 25 26 26 26 27 28 28 29 29 29 28 28 27 27 28 28 29 30 30 30 30 29 27 27 28 29 30 31 30 29 29 28 27 28 27 25 24 23 22 20
16 17 18 18 18 18 17 17 16 14 13 13 13 13 13 13 13 13 14 13 13 13 12 12 13 14 17 20 24 26 27 23 19 17 17 17 18 19 18 18 20 21 21 21 21 23 25 28 29 28 27 26 26 27 28 29 29 28 27 28 28 29 29 29 30 30 29 27 28 31 31 30 29 29 31 32 30 27 27 26 24 22 22 21 20
15 17 17 17 17 17 18 18 17 15 13 12 12 12 12 12 12 12 13 13 12 12 13 14 14 15 18 21 23 25 25 23 20 19 19 18 17 17 16 16 16 17 16 16 17 17 19 23 23 23 24 26 26 26 27 28 28 27 26 28 29 29 29 29 30 31 30 30 31 34 34 32 31 30 30 31 30 26 23 23 22 19 18 19 20
15 16 17 17 16 17 18 19 17 15 13 12 11 11 11 12 12 11 11 12 12 12 13 14 14 14 16 18 19 20 19 18 18 18 18 17 14 12 10 11 12 13 13 14 15 14 15 16 16 16 18 20 22 22 23 25 25 25 25 27 29 29 29 31 32 33 31 29 30 33 33 33 33 32 31 32 31 26 22 22 23 21 18 18 20
16 16 17 17 15 15 17 17 15 14 13 12 11 11 11 12 12 11 10 10 11 11 11 12 13 14 14 15 16 15 15 14 15 15 15 14 13 11 9 9 10 10 11 12 13 14 15 17 18 18 18 19 21 22 22 23 24 24 25 25 26 27 29 31 34 35 33 30 29 30 32 33 33 33 31 31 31 29 25 22 23 22 20 18 19
16 16 16 15 15 15 16 16 15 14 13 12 10 9 9 10 11 10 9 8 9 10 11 11 12 12 13 12 13 13 12 12 13 12 12 11 10 10 10 10 9 9 10 10 11 12 13 15 17 18 20 21 23 25 25 26 27 28 28 28 28 28 29 30 33 36 36 33 31 32 35 36 34 30 27 28 30 30 26 24 24 25 23 21 20
15 15 14 14 14 15 15 15 14 13 12 11 10 8 8 8 9 9 8 7 7 8 9 10 10 10 10 9 9 9 9 9 10 10 10 9 9 8 8 9 8 8 9 9 9 9 10 11 12 14 15 18 20 21 23 25 26 28 30 31 32 32 32 32 32 34 35 35 36 37 37 36 33 30 28 28 30 29 26 24 24 26 26 24 22
13 13 13 13 13 14 15 14 13 12 12 11 9 7 7 7 7 8 7 6 6 6 7 8 9 9 9 8 7 7 7 7 7 8 8 8 8 7 7 6 6 6 6 6 6 7 7 7 7 8 10 12 14 16 18 19 21 22 24 26 28 30 33 33 31 29 29 30 33 35 34 32 33 34 33 32 31 30 27 24 22 23 25 24 22
12 12 13 12 12 13 13 12 11 12 11 10 8 7 6 6 6 6 6 6 5 5 5 6 6 7 7 7 6 5 5 5 6 6 7 7 7 7 6 5 5 5 5 5 6 6 6 6 6 6 6 8 9 11 12 14 15 17 18 19 21 23 26 29 30 29 26 23 24 27 28 27 28 30 29 26 24 23 22 19 17 19 21 20 18
11 12 12 11 11 11 10 10 10 10 10 8 7 6 5 5 4 4 4 4 4 3 3 3 4 5 6 6 5 4 4 4 5 6 6 6 7 6 6 6 6 6 6 7 7 8 8 9 10 11 11 10 9 9 9 9 10 11 12 13 14 16 18 20 23 24 23 20 19 19 18 16 14 14 13 10 11 12 12 13 14 15 15 14 14
11 11 11 10 10 9 8 8 8 8 8 7 6 5 4 4 3 3 3 3 3 2 2 2 2 3 4 4 4 3 4 5 6 6 7 7 7 7 7 7 7 7 8 8 9 9 10 11 13 15 16 17 17 17 15 13 11 8 7 8 8 8 9 11 11 12 12 13 13 13 10 9 11 11 12 13 15 15 15 16 16 15 15 14 14
10 9 9 8 7 7 7 7 7 7 6 5 4 4 3 3 2 2 2 2 2 2 1 1 1 2 3 3 3 3 5 6 6 6 7 7 7 7 8 8 9 9 10 11 11 12 13 14 16 18 20 21 22 23 22 21 18 14 10 6 4 4 3 2 3 5 7 10 12 13 14 16 18 19 20 21 21 21 22 21 21 20 18 16 15
Wind_Direction
199 197 198 199 198 199 201 203 206 207 209 211 212 214 215 216 217 216 216 216 215 215 216 216 213 212 213 213 212 213 212 214 216 217 221 223 226 231 229 227 228 230 232 231 231 229 226 228 229 227 229 229 231 234 236 237 236 241 247 251 259 261 259 273 285 294 302 309 312 317 326 324 319 320 324 323 324 343 352 344 345 357 346 320 318
201 199 199 200 199 200 201 202 203 204 205 208 211 214 216 217 216 215 215 216 216 217 217 217 217 215 216 216 214 213 212 214 217 217 220 222 224 229 230 228 231 232 232 231 230 230 229 230 230 229 230 232 234 236 238 241 240 241 244 246 255 261 256 264 280 289 295 302 305 307 312 311 312 317 318 320 321 327 338 343 344 341 336 330 301
201 199 199 201 201 201 201 201 202 203 204 207 211 214 216 216 215 214 216 216 216 218 219 218 217 216 217 217 215 215 215 216 219 218 220 222 224 228 230 228 231 233 232 232 231 230 229 230 232 231 231 232 235 239 239 242 246 248 250 252 256 259 257 257 265 278 289 296 299 301 303 304 305 306 305 307 308 313 324 332 339 335 324 315 270
203 199 200 202 202 202 202 203 203 203 205 208 211 214 215 214 214 214 216 217 216 218 220 219 218 217 218 218 218 220 219 219 221 220 220 223 225 230 231 230 232 235 236 236 235 234 232 231 233 233 233 234 235 239 240 239 241 244 249 250 251 253 256 255 256 264 277 285 287 290 295 297 296 295 298 299 295 298 307 316 328 330 319 307 253
207 204 204 204 203 203 204 205 206 206 207 210 211 213 214 213 213 214 215 216 216 217 218 217 217 218 221 222 223 226 225 221 221 222 223 225 227 230 233 234 234 236 239 240 238 237 236 235 235 233 232 234 235 238 240 239 239 240 243 244 245 248 251 252 253 256 265 274 280 283 284 286 287 286 288 292 295 297 296 299 309 315 322 319 258
209 208 208 207 205 205 206 207 209 209 209 212 213 213 214 214 213 213 214 214 216 216 217 216 216 218 224 225 224 228 231 226 224 227 227 227 229 232 234 235 237 239 240 242 241 240 238 238 237 234 233 234 235 237 238 237 238 240 240 241 241 243 245 248 249 251 257 265 273 277 277 276 279 280 276 278 290 296 296 295 296 296 314 322 288
208 208 209 210 207 205 207 208 211 211 211 213 215 214 215 215 215 214 213 213 215 217 218 218 216 218 225 228 224 225 229 228 228 231 231 228 228 231 234 237 239 241 242 243 243 242 241 239 237 235 234 233 233 235 235 235 237 237 237 236 236 238 241 244 245 246 252 259 265 271 273 271 272 273 270 267 277 282 279 284 293 292 297 305 293
210 208 207 211 210 207 208 209 210 211 211 212 214 215 216 216 216 215 214 213 215 218 219 220 220 220 224 227 226 224 225 226 226 229 231 229 228 230 234 237 240 242 243 244 244 244 243 241 239 237 235 234 233 232 232 233 235 236 235 231 231 234 239 243 245 244 249 256 261 266 271 271 271 272 269 262 264 267 263 275 292 294 290 290 285
217 213 207 209 212 210 209 210 210 209 209 210 211 214 215 216 215 215 215 215 217 219 221 221 222 223 224 226 227 225 225 226 224 225 227 227 229 231 233 235 239 240 242 244 245 245 244 243 241 238 236 235 235 234 232 231 230 233 233 230 230 231 234 240 243 244 247 252 257 261 264 265 265 266 266 262 263 267 266 273 284 288 290 289 285
225 224 217 212 212 212 209 209 210 209 207 208 209 211 213 215 216 216 216 217 219 219 221 222 223 225 225 225 226 225 227 228 228 230 231 229 228 230 232 233 235 237 239 241 244 245 245 244 243 241 238 238 239 241 243 242 240 238 235 230 230 232 236 239 240 241 245 248 253 257 259 263 266 268 271 271 270 270 269 272 280 287 291 290 289
236 231 228 223 215 211 209 207 208 208 208 208 209 210 212 213 214 216 216 218 219 218 219 222 224 226 227 227 227 227 229 229 230 234 238 237 233 229 230 231 232 233 236 238 241 244 245 244 243 241 238 237 240 245 250 251 249 246 242 236 231 230 234 240 242 243 245 248 253 256 259 265 269 271 275 277 275 274 276 279 279 282 285 284 289
265 243 234 233 224 215 211 209 208 208 209 210 211 210 211 212 213 216 218 219 218 219 220 222 224 226 227 228 229 229 231 230 231 236 242 243 240 234 230 233 233 233 235 237 238 240 241 241 241 241 238 235 235 241 249 253 251 249 247 245 240 237 236 238 241 243 246 251 254 255 258 264 268 269 272 276 277 277 278 278 275 275 277 276 281
299 274 249 241 234 224 216 212 211 211 211 212 213 212 212 213 215 218 221 222 220 220 221 222 223 224 225 227 228 230 232 230 231 237 242 245 244 239 233 233 236 236 235 236 236 236 236 237 238 240 239 235 230 230 237 246 250 250 249 248 247 245 242 240 240 240 243 249 255 256 256 259 262 264 265 267 271 272 272 273 274 273 273 271 274
329 308 277 253 241 234 226 219 216 216 215 213 212 214 215 217 219 221 224 224 222 223 225 224 224 224 223 224 226 229 231 229 230 236 242 243 244 241 235 232 235 237 236 236 236 235 233 232 234 235 235 232 228 224 225 230 238 246 248 248 248 247 246 245 242 239 239 240 245 250 251 251 252 255 258 257 258 262 265 269 273 273 272 272 275
351 339 319 287 255 240 235 229 222 219 218 214 212 214 217 219 222 224 225 225 224 225 227 227 227 226 226 226 227 229 231 229 228 233 239 241 242 240 236 231 231 234 235 235 235 234 232 230 231 232 231 229 226 225 225 224 226 231 236 240 242 242 243 243 242 241 240 238 241 244 246 248 249 251 254 255 256 259 260 263 268 271 270 271 272
356 350 342 331 303 261 243 238 231 225 220 216 215 215 217 220 222 223 225 228 229 228 229 230 229 229 229 229 229 233 235 233 231 233 237 240 239 238 235 231 230 231 232 233 233 233 232 230 229 229 229 229 227 227 229 227 225 227 230 233 236 238 238 238 238 242 245 245 246 247 246 245 245 247 248 251 253 257 262 264 263 261 260 263 265
1 353 346 339 333 313 274 250 239 231 225 221 219 218 218 220 222 222 225 228 230 230 230 231 231 232 232 231 230 234 237 236 234 235 237 237 236 235 233 230 229 231 232 232 233 233 232 230 228 228 228 228 227 229 233 233 229 229 232 233 237 241 242 241 240 242 248 250 250 250 249 246 246 248 251 252 251 250 255 258 256 254 255 256 258
4 358 350 338 329 325 311 284 257 240 231 228 226 223 222 223 222 221 223 227 230 232 232 233 233 233 233 231 230 233 237 236 234 235 236 236 234 232 230 228 228 230 231 233 234 235 235 233 230 228 227 228 227 229 234 234 230 229 231 233 237 241 242 242 240 240 244 249 249 249 249 248 248 249 251 252 250 246 244 245 248 254 257 254 255
357 354 351 342 331 322 316 311 297 267 245 237 233 229 226 226 225 223 224 227 230 232 233 235 235 234 234 233 231 232 236 238 236 235 235 235 234 231 226 225 228 229 230 231 232 233 235 236 234 233 230 228 227 229 233 234 229 226 229 232 235 239 241 241 238 233 232 236 241 246 249 251 252 251 251 250 248 243 240 240 242 248 252 253 254
344 343 341 340 337 331 321 314 310 299 282 264 251 246 240 234 229 226 227 230 232 233 232 233 236 237 236 236 235 233 235 237 238 237 235 235 234 230 223 222 227 229 229 230 231 232 233 233 235 237 236 233 230 230 233 235 232 227 226 230 233 236 239 240 238 234 231 233 238 243 247 250 250 248 248 247 244 241 240 238 236 237 243 249 252
336 337 333 331 334 336 331 317 304 300 305 298 278 265 261 257 252 243 237 234 233 233 234 234 236 238 238 239 239 237 236 237 238 239 237 235 235 231 223 221 224 228 229 230 230 231 232 230 231 235 239 239 237 234 234 237 238 234 229 229 232 234 236 239 238 235 236 238 240 242 242 242 243 242 242 241 240 240 240 238 235 231 233 240 247
331 332 329 325 326 329 330 326 315 304 306 306 288 266 257 258 260 260 260 258 248 238 235 235 237 240 240 239 239 239 238 237 238 239 238 236 236 234 229 223 222 225 230 233 233 232 232 231 231 233 236 240 240 238 237 239 241 241 238 235 234 233 234 238 242 243 242 243 243 242 241 240 241 242 241 240 239 237 235 236 235 232 232 236 242
326 326 323 319 320 325 328 330 329 322 313 304 290 277 266 257 251 248 253 264 266 257 246 238 237 240 242 242 241 240 240 239 236 236 236 236 236 236 234 229 224 224 229 235 237 236 235 233 232 232 235 239 240 240 240 239 240 243 244 244 242 240 239 240 244 246 246 246 245 242 240 239 239 240 239 238 240 239 235 234 232 231 234 238 241
323 322 320 317 317 323 329 330 331 329 323 312 299 288 277 265 256 248 243 247 257 261 255 245 237 237 240 242 243 241 240 240 238 235 234 234 236 237 237 234 229 227 229 235 240 240 240 238 235 234 236 239 241 243 244 244 243 245 248 248 247 245 243 241 242 244 243 243 243 240 238 237 237 238 237 236 238 240 238 236 234 232 236 241 244
323 319 318 318 315 318 327 330 329 326 322 318 313 301 284 268 262 261 252 245 249 256 257 252 244 239 239 241 243 242 239 237 238 238 237 236 237 238 238 236 233 230 229 233 238 241 242 242 239 237 239 242 243 244 245 247 248 250 250 250 249 246 242 239 238 239 240 239 239 238 237 236 234 235 237 237 238 238 238 238 238 238 239 244 246
320 316 316 315 312 312 321 327 321 315 315 316 314 309 299 283 268 263 261 256 252 254 257 257 251 244 243 243 241 242 240 236 234 235 235 235 237 238 237 237 237 235 233 233 236 238 240 242 241 240 241 242 243 244 246 249 252 253 251 248 245 242 238 234 232 233 234 235 235 236 236 236 235 233 232 232 236 237 236 236 238 239 240 243 246
318 316 315 313 309 308 315 322 315 309 310 313 310 307 305 300 291 279 268 261 255 253 256 259 257 253 254 254 249 243 239 235 232 230 227 226 229 232 234 235 235 234 233 234 236 238 239 241 242 243 243 244 246 247 248 250 251 251 249 245 242 238 233 229 229 229 230 231 232 234 235 236 235 233 229 229 234 235 234 234 236 240 241 240 243
314 314 312 310 308 306 308 312 315 314 313 310 305 302 302 303 304 299 290 282 273 262 257 257 258 256 260 271 276 268 256 245 235 227 220 217 218 221 225 228 229 229 230 232 234 237 239 241 243 243 242 242 244 243 242 241 240 240 240 239 239 238 234 230 230 230 230 231 232 235 235 234 234 233 231 232 234 234 233 234 235 239 240 236 237
309 309 311 309 307 307 307 306 311 317 315 312 308 298 289 292 297 296 294 293 288 281 273 268 265 261 257 260 265 268 268 265 258 247 234 219 210 209 213 218 225 231 235 237 235 233 235 238 240 240 238 237 238 237 236 236 234 231 229 227 229 230 227 224 225 226 227 229 231 233 233 232 232 234 234 234 235 234 233 233 233 235 236 234 235
305 305 309 309 308 309 308 305 306 313 314 314 313 308 298 292 290 290 293 294 292 289 283 275 271 271 269 261 253 250 254 260 268 273 258 229 212 212 215 219 228 238 245 243 234 228 231 235 236 238 238 237 237 236 234 234 233 230 227 223 223 223 221 219 221 222 223 224 227 229 231 232 232 233 233 234 234 234 232 232 233 233 232 232 236
301 301 303 304 306 307 304 300 301 305 308 310 313 312 309 307 302 298 299 303 301 295 288 281 277 276 275 268 259 252 251 253 261 271 267 241 221 221 225 228 233 236 237 232 224 220 227 235 237 238 238 237 237 237 235 235 235 234 231 227 224 224 223 221 220 219 219 222 224 226 229 231 233 233 234 236 236 235 233 231 230 230 230 230 234
293 294 295 296 299 300 298 298 299 299 300 307 313 311 310 312 313 311 310 309 304 298 295 294 293 288 280 271 261 253 251 251 252 256 258 251 240 238 238 237 237 235 232 226 219 217 224 233 237 238 237 236 237 237 236 237 237 235 234 233 229 226 225 225 222 219 219 221 222 224 226 230 232 234 235 235 234 232 230 227 224 225 228 230 230
286 289 291 293 295 296 298 300 301 300 300 306 311 308 307 309 313 314 314 313 310 306 303 303 301 294 284 275 265 255 250 248 247 249 253 253 252 252 250 243 238 235 230 223 220 222 229 234 237 238 238 237 238 237 235 237 239 239 238 238 236 233 230 227 224 222 223 224 225 226 228 229 230 231 233 233 232 229 227 227 227 225 225 226 226
283 283 284 286 290 293 295 297 297 298 300 303 303 302 303 305 306 308 311 314 316 317 314 308 303 296 288 281 273 264 255 251 250 253 255 254 251 251 250 243 236 232 227 222 222 229 235 237 238 238 238 238 239 238 234 233 235 238 240 241 241 240 237 232 227 225 226 228 229 230 232 232 231 231 233 235 235 232 228 227 226 223 221 221 222
283 282 281 281 283 284 286 289 291 295 299 300 299 299 300 301 301 302 306 309 311 312 311 308 305 301 294 287 283 279 271 262 257 256 255 253 250 247 242 235 229 226 225 225 226 230 236 239 239 238 238 238 238 238 236 234 234 235 237 238 239 240 239 236 232 229 229 232 234 233 233 233 233 233 235 237 235 233 231 228 225 222 222 221 221
284 282 281 279 279 280 281 284 287 290 293 295 296 297 298 297 298 299 302 304 305 307 308 308 307 302 293 288 287 285 282 276 267 259 255 252 249 243 235 229 224 222 222 225 228 230 233 237 239 239 240 239 238 238 239 238 237 236 235 236 237 238 237 236 234 232 233 236 238 237 235 235 234 232 233 237 237 235 235 233 227 223 224 224 223
282 283 281 278 277 279 281 282 284 284 286 289 291 291 291 292 294 298 302 304 305 307 307 308 310 307 300 295 292 286 279 276 270 261 254 250 245 238 232 231 231 228 225 227 230 230 231 234 238 241 242 241 240 240 241 241 240 239 238 238 238 239 239 236 232 230 231 233 236 235 233 235 237 232 229 235 239 238 236 236 232 226 224 224 224
279 279 278 276 278 279 280 282 284 283 284 287 289 289 291 292 293 296 299 301 303 305 308 311 314 313 308 304 301 291 278 273 268 258 251 247 241 234 230 230 232 232 233 237 238 235 235 239 241 243 245 244 243 243 243 243 243 242 241 240 240 240 240 237 232 228 227 229 230 227 222 226 234 233 227 230 236 236 234 234 232 228 224 221 219
278 278 278 279 280 280 278 277 279 280 281 282 285 288 290 291 291 293 296 297 300 304 308 311 311 309 308 311 316 313 294 271 259 252 246 242 238 235 232 231 231 232 235 240 241 240 241 244 245 245 245 246 245 245 245 246 247 247 247 247 246 243 240 238 234 230 227 226 227 225 221 223 228 227 223 224 230 231 231 229 226 224 223 219 214
275 277 280 282 282 281 278 275 272 272 273 275 278 283 287 288 289 291 292 295 298 301 305 307 306 305 308 312 318 323 320 302 279 267 257 245 239 238 236 235 236 237 238 239 241 241 242 244 245 244 244 245 246 247 248 248 249 251 252 252 252 250 246 243 241 239 237 231 228 227 227 226 225 222 219 220 222 225 226 227 224 221 221 219 214
275 277 279 281 281 281 279 276 271 267 267 269 271 274 279 283 287 290 291 293 296 297 298 299 299 301 303 302 302 308 314 311 299 284 272 259 248 242 238 237 240 241 240 240 241 241 241 244 244 242 242 245 247 248 248 248 249 252 253 253 252 252 251 250 248 246 245 239 230 227 229 229 225 223 223 222 221 220 221 223 222 219 218 219 217
275 277 278 280 280 280 278 277 276 273 271 270 268 270 276 281 285 289 292 295 298 299 299 300 301 302 304 303 300 299 302 304 299 290 283 276 264 249 241 239 243 244 243 242 244 243 244 246 247 244 243 246 249 250 249 249 249 251 252 252 251 250 249 250 249 247 244 238 230 227 230 230 225 222 224 223 219 215 214 215 215 212 212 214 213
277 277 279 280 280 279 277 277 278 277 276 276 276 278 282 285 286 288 292 296 299 302 302 303 306 307 307 309 310 309 307 306 301 293 290 290 285 269 249 240 241 242 241 241 244 246 247 248 250 248 246 247 250 252 251 251 252 253 254 254 253 251 249 248 249 248 245 239 230 227 229 229 224 220 220 219 214 210 207 207 208 208 208 208 207
282 280 280 279 278 278 276 274 274 274 275 278 281 284 286 287 287 290 294 298 303 307 307 307 310 312 312 317 325 328 326 320 312 303 297 294 292 285 275 265 258 255 253 250 248 250 251 252 252 251 250 251 253 254 253 252 253 255 258 259 258 255 252 250 248 246 244 241 235 229 227 227 225 221 220 221 218 212 205 200 199 200 200 199 202
283 281 280 279 278 278 276 273 272 273 273 274 276 279 283 285 288 291 296 301 308 312 313 314 316 317 318 324 331 333 331 328 324 319 313 308 302 298 295 292 289 286 285 281 274 269 267 267 266 265 263 262 262 262 261 259 257 257 259 261 262 261 259 256 253 249 246 243 239 233 229 226 224 222 222 225 223 216 206 198 193 189 188 189 194
282 280 279 279 278 279 278 276 274 273 272 272 272 274 277 282 287 291 298 307 315 318 318 319 319 319 320 323 327 327 328 329 330 331 331 327 321 316 312 309 308 306 304 302 300 293 287 283 281 278 276 274 273 272 271 269 266 264 262 261 262 262 261 260 261 259 254 247 240 234 228 226 227 229 230 228 224 216 208 200 190 184 184 187 189
280 278 277 276 277 278 279 279 277 275 273 272 271 273 277 282 286 292 299 308 320 324 322 320 320 319 317 317 320 324 328 332 335 340 344 343 339 335 330 326 324 324 324 325 325 322 318 313 304 297 293 291 289 287 284 279 277 275 272 268 266 263 260 259 259 259 258 252 243 235 230 230 236 240 239 231 222 213 206 199 190 183 184 188 190
283 280 278 275 274 275 278 279 278 278 277 275 274 276 279 281 286 294 302 310 323 331 328 322 319 316 311 309 314 323 331 338 344 348 348 348 350 354 360 5 7 10 14 16 14 14 15 12 4 350 337 328 322 315 306 298 291 288 286 284 279 273 267 262 257 254 255 255 248 240 237 237 240 242 239 231 220 209 201 193 184 178 177 178 178
285 283 279 275 272 272 274 277 279 280 280 280 280 282 282 284 288 294 300 308 320 331 332 321 314 307 304 306 314 330 348 2 11 15 12 8 9 16 28 41 46 48 50 51 47 46 47 48 50 51 48 40 31 19 2 343 325 313 306 302 296 288 279 271 263 257 255 251 243 236 233 229 222 220 216 201 184 174 165 156 153 151 144 136 134
286 284 281 278 274 271 269 269 272 276 280 281 282 282 281 284 289 295 300 306 315 320 325 318 310 311 314 317 330 5 36 42 42 39 34 29 26 29 38 50 56 59 63 64 63 63 64 65 65 66 65 63 62 61 57 51 39 17 347 325 315 306 293 280 270 260 249 236 223 213 198 173 157 149 140 137 138 134 122 115 113 109 99 94 99
289 287 286 281 275 270 267 264 265 269 274 279 282 279 272 267 266 273 290 310 313 309 312 325 329 329 329 330 350 31 51 54 52 50 47 42 39 39 45 54 61 65 67 69 71 71 73 75 75 76 74 72 71 71 72 73 73 74 72 69 70 83 107 147 179 188 189 184 177 167 153 139 128 120 116 117 118 115 108 104 100 93 85 81 83
Height
817 819 822 824 826 829 831 833 836 838 841 843 845 846 848 849 851 853 854 856 857 858 860 861 863 864 865 866 867 868 869 870 871 872 873 873 874 874 874 874 875 875 875 876 876 876 877 877 878 878 879 879 879 879 879 880 880 881 881 881 881 881 882 881 881 879 878 878 877 877 876 876 875 875 874 873 873 872 871 871 870 870 869 867 865
814 817 819 822 823 826 828 830 833 835 837 840 841 843 845 846 848 850 852 853 854 856 857 859 860 862 863 864 865 866 867 868 869 870 871 871 872 873 873 873 873 873 874 874 875 875 875 876 876 877 877 878 878 878 878 878 878 879 879 880 880 880 880 881 880 879 878 877 877 876 875 875 875 874 873 873 872 871 871 870 869 869 868 867 865
811 814 816 819 821 823 826 828 830 832 834 836 838 840 842 843 845 847 849 850 852 853 854 856 857 858 860 862 863 864 865 866 867 868 869 870 870 871 871 871 872 872 872 872 873 873 874 874 875 875 876 876 876 876 877 877 877 877 878 878 879 879 879 880 879 878 877 876 876 875 874 874 874 873 872 872 871 870 870 869 869 868 867 867 865
809 811 813 816 818 821 823 825 827 829 831 833 834 837 838 840 842 843 846 847 849 850 851 853 855 855 857 858 860 861 862 863 865 866 867 868 868 869 869 869 870 870 870 871 871 872 872 872 873 874 874 874 875 875 875 875 876 876 877 877 878 878 878 878 878 877 877 875 875 874 874 873 873 872 872 871 870 870 869 868 868 867 866 866 864
807 809 811 813 816 818 820 822 824 826 828 829 831 833 835 837 839 840 842 844 846 847 848 850 851 852 853 855 856 858 859 860 862 863 864 865 866 867 867 867 868 868 868 869 869 870 870 870 871 872 872 872 872 873 873 873 874 874 875 876 876 876 876 876 876 876 875 874 874 873 873 872 871 871 870 870 869 869 868 867 867 866 865 865 863
805 806 809 811 813 815 817 819 821 823 825 826 828 830 832 833 835 836 838 840 842 844 845 846 848 848 850 851 853 854 855 857 858 860 862 863 863 864 865 865 865 865 866 866 867 867 868 868 869 869 870 870 870 870 871 871 872 873 873 874 874 875 874 874 874 874 874 873 872 872 871 871 870 869 869 869 868 867 867 866 866 865 865 864 863
802 803 806 808 810 812 814 816 818 820 822 824 825 827 829 830 832 833 835 837 838 840 841 843 844 845 846 847 849 851 852 853 855 856 858 859 860 861 862 862 863 863 863 864 864 865 865 866 866 867 867 867 867 868 868 869 870 871 871 872 872 872 872 872 872 872 872 871 870 870 869 869 868 868 868 867 867 866 866 865 865 864 864 864 863
800 801 804 806 807 808 810 812 815 817 819 821 823 825 826 827 829 830 832 833 835 836 838 839 841 842 843 844 846 848 848 850 851 852 854 856 857 858 859 859 860 860 860 861 862 862 863 863 864 864 864 864 864 865 866 867 868 868 869 870 870 870 870 870 870 870 870 869 868 868 867 867 867 866 866 866 865 865 864 864 864 863 863 863 862
799 800 802 803 804 806 807 810 811 814 816 818 820 822 823 825 826 828 829 830 832 833 834 836 838 839 840 841 843 844 845 846 847 848 850 851 853 855 855 856 856 857 857 858 859 859 860 860 861 861 861 861 862 862 863 864 865 866 867 867 867 868 867 868 868 868 868 867 867 866 866 865 865 864 864 864 864 864 863 863 863 862 862 861 861
797 800 801 801 802 804 805 808 809 811 813 814 816 818 820 822 824 825 826 827 829 830 831 833 834 835 837 838 839 841 841 842 843 844 846 847 849 851 852 852 853 853 854 854 855 856 857 857 858 858 858 858 859 859 860 861 862 864 865 865 865 865 865 866 866 866 866 865 864 864 863 863 862 862 862 862 862 862 862 862 861 860 860 859 859
795 798 800 800 801 802 804 805 807 809 810 812 813 815 817 819 821 822 823 825 826 827 829 830 831 832 834 834 836 837 837 838 839 840 841 843 845 847 848 849 850 850 850 851 851 852 853 854 855 855 855 855 855 856 856 858 859 860 861 862 863 863 863 864 864 864 864 863 862 862 861 861 861 861 861 861 860 860 860 860 860 859 858 858 857
795 796 798 799 800 801 801 803 804 806 808 809 811 812 814 816 818 819 820 821 823 824 825 826 827 828 830 830 832 832 833 834 835 836 837 839 841 844 845 846 846 847 847 847 848 849 850 851 851 852 852 852 852 853 853 854 855 856 858 859 860 860 861 861 861 862 862 861 861 860 860 860 860 860 860 859 859 859 859 858 858 857 857 856 855
795 795 795 797 798 799 799 800 801 803 804 806 808 810 812 813 814 816 817 818 820 820 821 822 822 824 825 826 827 827 828 829 830 831 832 834 836 839 841 842 843 843 843 843 844 845 845 847 847 848 848 849 849 850 850 850 851 852 854 855 856 856 857 857 858 859 859 859 859 858 858 859 858 858 858 858 858 857 857 856 856 855 855 854 853
796 795 794 794 795 797 798 798 798 800 801 803 805 807 809 810 811 812 814 815 816 817 817 818 818 819 819 820 821 822 823 824 825 826 827 829 831 834 836 838 839 839 840 840 840 841 841 842 843 844 845 845 846 847 847 848 848 849 850 851 851 852 853 853 854 855 855 856 856 856 856 856 856 856 856 856 856 855 855 854 854 853 853 852 852
797 795 794 793 793 794 795 795 796 797 798 800 801 803 804 806 807 809 810 811 812 812 813 813 814 814 815 816 817 817 818 819 820 821 822 824 827 829 831 833 834 835 835 835 836 836 837 838 839 839 841 842 842 843 844 845 846 846 847 847 847 848 849 849 849 850 851 851 851 852 852 853 853 853 853 853 853 853 852 852 852 851 851 850 850
797 796 795 794 793 792 793 793 793 794 795 796 797 798 799 800 802 804 805 807 807 808 808 809 809 810 811 812 813 813 813 815 816 817 819 821 824 826 828 829 830 830 831 831 831 832 832 833 834 835 836 837 838 839 840 842 843 843 844 844 844 845 845 845 845 846 847 847 847 848 848 849 850 850 850 850 850 850 850 850 849 849 848 848 847
797 796 795 794 793 792 791 790 790 790 791 792 792 793 794 795 797 799 800 801 802 803 803 804 805 805 806 807 808 808 809 810 812 813 815 818 821 823 824 825 826 826 827 827 827 827 828 828 829 831 832 833 834 835 837 838 839 840 841 841 841 841 841 841 842 842 843 844 844 844 845 845 846 846 846 847 847 848 848 847 846 846 845 845 843
797 796 795 794 793 791 790 788 787 787 787 787 787 787 789 790 791 793 795 796 797 798 798 799 800 801 801 802 803 804 805 806 807 809 811 813 816 818 820 822 822 822 823 823 824 823 823 824 825 826 827 828 830 831 832 834 836 837 837 838 838 837 837 838 839 839 839 840 841 841 841 842 842 842 843 843 843 844 844 844 844 844 842 841 840
798 796 795 794 792 791 789 788 786 785 783 783 783 783 784 786 787 788 790 791 791 793 793 794 794 795 796 797 798 800 800 801 803 804 806 808 811 813 816 817 818 818 818 819 819 819 819 820 820 821 823 825 826 827 828 830 832 833 834 834 834 833 833 835 836 836 836 837 837 837 837 837 838 838 839 839 839 840 840 840 841 841 840 838 838
798 796 794 792 791 790 789 788 786 784 783 783 782 782 782 783 784 785 786 786 787 787 788 788 789 790 791 792 794 795 796 797 798 799 801 803 805 808 810 812 812 813 814 814 814 814 815 815 815 816 817 820 822 823 824 826 827 829 830 830 829 829 830 831 832 833 834 834 834 834 834 834 834 835 835 835 835 835 835 835 837 837 837 836 836
797 796 793 791 790 789 789 788 786 784 783 783 783 783 784 784 784 784 784 783 783 783 783 783 784 784 786 787 788 790 791 792 793 794 796 797 800 802 805 806 807 808 809 809 809 809 809 810 811 811 812 814 817 819 820 821 823 825 826 825 825 827 828 828 829 830 831 831 831 831 831 831 831 831 831 831 831 830 830 831 832 833 834 834 833
797 795 793 791 789 788 788 787 785 784 784 783 783 783 783 783 784 784 786 785 782 780 779 779 780 780 781 782 783 784 786 787 788 789 790 792 794 797 799 800 802 804 805 805 805 805 805 806 807 807 808 809 812 813 815 817 819 819 820 821 822 824 825 826 827 827 828 828 828 827 827 827 827 827 827 827 827 826 826 827 827 829 830 830 830
798 795 793 791 789 787 786 785 784 784 784 783 783 782 781 781 780 781 784 786 786 782 779 776 776 776 776 777 778 780 781 782 783 784 785 787 789 790 792 795 798 800 800 800 801 801 802 803 803 804 804 805 807 809 810 812 814 814 815 817 819 821 822 823 824 824 824 824 823 823 823 822 822 822 822 822 822 823 823 824 824 825 825 826 826
798 795 793 791 789 786 784 783 782 783 783 782 781 781 781 780 778 777 778 781 783 784 781 776 772 770 771 772 773 774 776 777 778 779 780 781 783 784 787 790 793 795 796 796 797 798 799 800 800 800 801 801 803 805 807 808 809 810 811 813 815 817 819 820 820 820 820 820 819 819 818 818 818 818 818 819 819 819 820 821 821 821 821 822 823
798 796 793 791 789 786 783 781 781 782 782 781 780 778 778 778 777 776 776 776 777 780 781 776 769 766 766 767 767 769 770 771 773 774 774 776 777 778 781 784 786 789 790 792 793 795 795 796 797 797 798 799 800 802 803 804 804 806 808 810 812 813 814 815 816 816 815 815 814 814 814 814 814 814 815 816 816 816 817 817 817 818 818 818 818
798 796 794 791 789 786 783 781 782 782 782 781 779 778 775 774 773 774 775 774 774 775 777 774 767 762 762 762 763 764 766 766 767 768 768 770 771 773 775 778 781 784 785 787 789 791 792 793 794 794 795 796 797 798 799 799 800 802 803 805 807 808 809 809 810 810 810 810 810 810 809 809 810 811 812 812 812 812 812 813 813 813 814 814 814
797 796 794 791 789 786 783 781 781 781 780 779 779 778 775 772 771 771 772 772 771 771 774 773 767 761 760 761 761 761 761 762 762 763 763 764 765 767 770 772 775 778 780 782 784 786 788 789 790 791 792 793 794 795 795 796 797 797 798 800 801 802 802 803 804 804 804 805 805 805 805 805 806 807 807 808 808 808 808 808 809 809 809 810 810
796 795 793 792 789 786 783 781 779 778 777 777 776 776 775 773 770 768 768 769 769 769 772 771 765 760 759 762 765 764 762 759 758 758 759 759 760 762 763 766 769 773 775 778 780 782 783 785 785 787 788 789 790 791 791 792 792 792 793 794 794 795 797 798 799 799 799 800 800 800 800 801 801 802 803 803 803 803 804 804 804 804 805 805 805
795 793 792 791 788 786 784 781 778 775 775 774 773 773 772 772 769 766 766 767 768 767 768 767 763 759 758 760 764 767 765 763 760 757 756 755 755 757 758 761 766 770 773 776 778 779 780 781 782 782 783 784 785 785 786 786 786 787 787 788 789 790 790 791 792 792 793 795 795 795 795 796 796 797 798 798 797 798 799 800 800 800 801 801 800
793 792 790 789 787 786 784 781 777 774 773 771 770 768 767 767 767 765 764 763 762 762 763 762 761 760 758 755 757 761 763 763 762 759 756 753 752 753 756 758 761 766 769 772 775 776 776 776 777 777 778 777 777 778 779 780 780 780 781 783 783 784 784 784 785 786 788 789 789 789 790 790 791 791 792 791 792 793 794 795 796 796 796 796 796
792 790 789 787 786 785 784 781 777 774 771 770 768 766 763 761 761 762 762 760 758 757 757 757 757 757 755 753 753 756 759 761 762 761 758 753 750 751 754 756 758 761 764 767 770 771 772 771 771 772 772 772 771 772 773 773 774 774 775 777 778 778 778 779 779 781 782 783 783 784 785 785 785 785 785 786 786 788 789 790 791 791 791 791 791
791 789 788 786 785 784 783 780 777 774 771 768 767 767 764 759 755 755 757 757 756 753 751 749 749 750 751 750 751 752 755 757 759 759 757 753 750 749 752 754 756 758 761 763 765 766 766 766 766 766 766 766 766 767 768 768 768 769 770 771 771 772 773 774 775 776 777 777 778 778 778 779 780 780 780 780 782 783 784 784 785 786 787 787 787
790 788 787 785 783 782 780 779 777 774 770 767 765 766 765 761 756 753 751 751 751 750 747 745 743 744 746 747 747 747 748 750 751 751 750 748 747 747 749 751 753 755 756 758 759 760 761 761 761 760 761 761 761 763 763 763 764 765 765 766 766 766 767 769 770 771 772 772 772 772 772 773 774 774 775 776 777 777 778 779 781 782 783 783 783
788 786 785 784 782 780 778 777 776 774 771 767 765 765 765 763 759 755 751 749 747 746 746 745 743 742 743 743 742 741 741 741 742 742 742 742 743 744 746 747 749 750 752 753 754 755 755 755 755 756 757 757 758 758 758 759 760 760 761 761 761 762 763 764 765 765 766 766 767 766 766 767 769 769 770 771 772 773 773 774 776 777 777 778 778
785 784 783 782 780 779 777 775 774 773 771 767 765 763 763 762 760 756 753 750 747 745 744 743 742 741 741 741 740 739 737 736 736 736 737 738 740 741 743 744 745 746 747 748 749 750 750 750 751 751 752 753 753 753 753 754 755 755 755 756 757 757 758 758 759 759 760 761 761 761 761 762 763 764 765 766 767 768 768 769 770 771 772 772 773
782 781 780 779 778 777 775 774 772 771 770 767 764 762 760 760 759 755 752 750 748 745 744 742 742 741 740 739 738 737 735 734 733 733 733 734 736 738 739 740 741 742 743 743 744 744 745 746 747 747 747 747 747 748 748 748 749 749 750 751 751 751 752 752 753 754 755 755 755 756 756 757 758 759 760 761 762 763 764 764 765 766 767 767 768
780 779 778 777 776 775 773 772 770 768 767 766 764 760 758 758 758 755 751 749 748 745 743 742 741 740 739 738 736 735 734 733 732 731 731 731 732 734 735 736 737 738 739 739 739 740 741 741 742 743 742 742 742 743 743 743 743 744 744 745 745 746 746 746 746 747 748 748 749 750 751 752 753 754 754 755 757 759 759 760 760 761 762 764 765
778 776 775 775 774 773 772 769 767 766 764 763 761 759 756 755 755 754 751 749 747 745 743 741 740 739 738 737 736 734 733 733 732 730 729 729 729 730 730 731 733 734 734 734 735 736 736 736 737 738 738 738 738 738 738 738 739 739 739 740 740 740 740 740 740 740 740 740 741 742 743 745 746 748 749 750 752 753 754 754 755 756 757 759 760
776 774 773 773 772 771 769 767 765 764 762 760 759 757 755 754 754 752 750 748 747 745 744 742 741 740 740 739 737 735 733 732 730 728 727 726 726 726 726 727 728 729 729 730 731 732 732 732 733 734 734 733 733 733 733 733 734 734 734 735 735 735 735 735 735 734 733 733 734 735 737 738 740 741 742 743 745 746 747 748 749 750 751 752 753
774 773 771 770 769 768 767 765 764 762 760 758 757 756 755 753 752 751 749 747 746 745 744 742 741 741 740 738 737 736 734 732 729 727 726 725 724 723 723 724 724 724 725 726 727 728 728 728 729 729 729 729 729 729 729 729 729 730 730 731 731 730 731 731 731 731 730 730 730 732 733 734 735 735 735 734 736 738 740 741 743 744 745 746 747
772 771 770 768 767 766 764 763 761 759 758 757 756 755 754 752 751 750 748 746 745 744 743 742 741 741 740 738 736 736 735 731 729 727 725 723 722 722 721 721 722 722 722 722 723 724 724 725 724 725 725 726 726 725 725 725 725 726 726 727 727 726 727 727 727 727 727 726 726 727 729 730 731 731 730 729 730 732 734 735 737 739 740 741 743
770 769 768 766 765 764 762 760 758 757 756 754 753 752 752 751 749 748 746 744 743 743 742 740 738 738 738 737 737 736 734 731 729 727 724 722 721 720 719 719 719 719 718 718 718 719 719 720 720 721 721 723 723 723 722 722 722 722 722 722 722 722 722 722 722 721 720 720 720 721 724 725 726 726 727 726 725 726 727 729 731 733 734 736 738
768 767 765 764 763 762 760 758 757 755 754 752 750 749 749 749 747 745 743 743 742 741 740 739 737 737 737 736 735 733 730 728 727 726 724 722 720 718 717 716 716 715 715 714 714 715 715 716 717 717 718 719 720 720 719 719 719 718 718 718 717 717 718 718 717 716 716 716 716 718 720 720 719 719 721 721 720 719 719 720 723 726 728 731 733
766 764 763 762 761 759 758 757 756 754 752 751 749 747 746 747 746 743 741 741 740 740 739 739 738 737 736 734 731 729 727 727 726 725 723 721 719 717 716 715 714 714 713 713 713 713 713 714 714 715 715 716 716 716 715 715 714 714 714 714 713 713 713 713 712 712 712 713 715 716 717 716 715 715 715 716 716 715 713 712 714 717 721 725 729
764 762 761 760 758 757 756 755 754 753 752 750 748 747 746 746 745 743 741 740 739 738 738 738 737 737 735 733 730 728 727 727 727 725 723 721 719 717 716 715 714 713 713 712 712 712 712 712 712 712 712 712 712 712 711 710 710 710 710 709 709 709 709 709 709 709 709 710 711 712 711 711 710 710 710 711 713 713 710 707 706 709 714 719 723
762 761 759 758 757 755 754 753 753 752 751 749 747 746 745 745 745 744 742 739 738 737 737 737 738 738 736 735 733 731 730 729 727 726 724 722 719 717 715 714 714 713 713 712 712 712 711 711 710 710 710 709 709 708 707 706 706 706 705 705 704 704 704 705 706 706 706 706 707 706 706 707 707 707 706 707 708 709 707 705 703 704 709 714 717
761 760 758 756 755 753 752 752 751 750 749 748 746 745 744 744 744 743 742 739 737 736 736 737 738 739 738 737 735 733 731 729 727 726 724 722 720 718 716 715 714 714 713 713 712 712 711 710 709 708 708 707 705 705 704 703 702 701 701 700 700 700 700 701 702 702 703 703 703 703 703 705 707 707 706 705 704 704 704 703 702 703 706 711 715
760 758 757 755 753 752 751 750 749 748 747 746 744 743 743 743 743 742 741 740 737 736 737 738 739 740 741 739 737 734 731 729 727 726 724 723 722 720 718 716 716 715 714 714 713 712 711 710 708 707 706 705 704 703 702 701 700 699 698 697 697 696 696 697 697 698 699 700 700 700 700 702 704 704 704 704 703 702 702 703 704 705 708 711 714
758 757 755 754 752 751 750 749 748 747 746 745 743 742 742 742 742 742 741 740 739 738 738 739 740 741 742 740 737 733 730 728 726 726 725 725 724 722 720 718 717 716 715 715 714 713 712 711 709 707 706 705 703 702 701 700 699 698 696 695 694 693 693 694 694 694 695 696 697 697 697 699 700 700 700 701 703 704 704 705 706 708 711 713 715
757 755 754 753 751 750 749 748 748 747 746 744 743 742 742 742 741 741 741 741 740 739 739 739 740 740 741 740 737 733 729 728 727 727 727 727 726 725 723 721 720 718 717 716 715 714 713 712 710 708 707 705 704 703 702 701 700 699 697 695 693 692 691 692 692 693 693 694 694 695 696 697 698 699 700 700 702 704 706 707 708 711 715 719 720
755 754 753 752 750 749 748 748 747 746 745 744 743 742 742 742 741 741 741 741 741 740 740 739 739 739 739 739 737 733 729 728 728 728 728 728 728 727 726 724 722 720 719 717 716 715 715 713 711 710 708 706 705 704 703 703 702 701 699 697 694 692 691 691 692 693 693 692 692 693 694 695 698 701 702 702 702 703 706 709 711 715 720 723 724